Location: Cerda�ola
(41.4919°N, 2.1403°E)
Time: 21:15:32
(UTC+00:00)

MetOp-A - Pass Details

Date: 29 March 2020
Orbit: 819 x 821 km, 98.5° (Epoch: 29 May)

Event Time Altitude Azimuth Distance (km) Brightness Sun altitude
Exits shadow 19:42:32 22° 143° (SE) 1,714 5.3 -16.9°
Maximum altitude 19:45:53 58° 72° (ENE) 954 4.2 -17.5°
Drops below altitude 10° 19:51:08 10° 355° (N) 2,426 6.9 -18.4°
Sets 19:53:31 0° 351° (N) 3,363 7.8 -18.8°
